Location: Plainartige
(45.6866°N, 1.7993°E)
Time: 10:37:09
(UTC+00:00)

Tiros 1 - Pass Details

Date: 02 June 2022
Orbit: 629 x 663 km, 48.4° (Epoch: 04 July)

Event Time Altitude Azimuth Distance (km) Brightness Sun altitude
Rises 21:26:54 0° 222° (SW) 2,904 10.4 -14.6°
Reaches altitude 10° 21:29:19 10° 214° (SW) 1,998 9.4 -14.8°
Maximum altitude 21:33:35 39° 146° (SE) 947 7.5 -15.2°
Drops below altitude 10° 21:37:52 10° 78° (ENE) 2,009 9.5 -15.6°
Sets 21:40:18 0° 71° (ENE) 2,922 10.4 -15.8°
